Location: Newark
(41.0400°S, 62.7845°W)
Time: 05:39:22
(UTC+00:00)

Envisat - Pass Details

Date: 26 October 2021
Orbit: 764 x 766 km, 98.2° (Epoch: 30 November)

Event Time Altitude Azimuth Distance (km) Brightness Sun altitude
Rises 06:50:41 0° 67° (ENE) 3,236 6.6 -22.8°
Reaches altitude 10° 06:54:14 10° 93° (E) 2,321 6.2 -22.3°
Maximum altitude 06:56:32 13° 120° (ESE) 2,110 6.3 -22.0°
Drops below altitude 10° 06:58:51 10° 147° (SSE) 2,333 6.5 -21.7°
Sets 07:02:26 0° 173° (S) 3,270 7.0 -21.2°
